timestamp,surface_pressure_avg,surface_temp_avg,battery_voltage,lat,long
2021-01-14 00:09:01+00:00,348.3463,3.4,12.49,47.84626,-54.09684
2021-01-14 00:19:01+00:00,348.1896,3.4,12.41,47.84626,-54.09684
2021-01-14 00:29:01+00:00,343.2713,3.4,12.41,47.84626,-54.09684
2021-01-14 00:39:01+00:00,341.408,3.4,12.41,47.84626,-54.09684
2021-01-14 00:49:01+00:00,339.9697,3.44,12.41,47.84626,-54.09684
2021-01-14 00:59:01+00:00,335.1996,3.43,12.41,47.84626,-54.09684
2021-01-14 01:09:01+00:00,328.4512,3.47,12.41,47.84626,-54.09684
2021-01-14 01:19:01+00:00,326.3046,3.5,12.41,47.84626,-54.09684
2021-01-14 01:29:01+00:00,324.9214,3.5,12.41,47.84626,-54.09684
2021-01-14 01:39:01+00:00,319.7581,3.51,12.41,47.84626,-54.09684
2021-01-14 01:49:01+00:00,315.413,3.57,12.41,47.84626,-54.09684
2021-01-14 01:59:01+00:00,314.2013,3.57,12.41,47.84626,-54.09684
2021-01-14 02:09:01+00:00,310.6581,3.58,12.41,47.84626,-54.09684
2021-01-14 02:19:01+00:00,304.7081,3.5,12.41,47.84626,-54.09684
2021-01-14 02:29:01+00:00,297.83799999999997,3.5,12.41,47.84626,-54.09684
2021-01-14 02:39:01+00:00,291.1964,3.5,12.41,47.84626,-54.09684
2021-01-14 02:49:01+00:00,284.223,3.5,12.41,47.84626,-54.09684
2021-01-14 02:59:01+00:00,276.4731,3.45,12.41,47.84626,-54.09684
2021-01-14 03:09:01+00:00,267.1264,3.4,12.41,47.84626,-54.09684
2021-01-14 03:19:01+00:00,257.683,3.4,12.33,47.84626,-54.09684
2021-01-14 03:29:01+00:00,247.4047,3.4,12.33,47.84626,-54.09684
2021-01-14 03:39:01+00:00,238.9448,3.4,12.33,47.84626,-54.09684
2021-01-14 03:49:01+00:00,229.4431,3.36,12.33,47.84626,-54.09684
2021-01-14 03:59:01+00:00,219.2382,3.3,12.33,47.84626,-54.09684
2021-01-14 04:09:01+00:00,210.8082,3.3,12.33,47.84626,-54.09684
2021-01-14 04:19:01+00:00,202.8298,3.2,12.33,47.84626,-54.09684
2021-01-14 04:29:01+00:00,196.2748,3.11,12.33,47.84626,-54.09684
2021-01-14 04:39:01+00:00,190.8915,3.1,12.33,47.84626,-54.09684
2021-01-14 04:49:01+00:00,185.1048,3.1,12.33,47.84626,-54.09684
2021-01-14 04:59:01+00:00,182.6881,3.1,12.33,47.84626,-54.09684
2021-01-14 05:09:01+00:00,182.7864,3.1,12.33,47.84626,-54.09684
2021-01-14 05:19:01+00:00,179.9381,3.05,12.33,47.84626,-54.09684
2021-01-14 05:29:01+00:00,177.9215,3.0,12.33,47.84626,-54.09684
2021-01-14 05:39:01+00:00,181.2198,3.06,12.33,47.84626,-54.09684
2021-01-14 05:49:01+00:00,180.7515,3.1,12.33,47.84626,-54.09684
2021-01-14 05:59:01+00:00,175.1798,3.1,12.33,47.84626,-54.09684
2021-01-14 06:09:01+00:00,175.8665,3.1,12.33,47.84626,-54.09684
2021-01-14 06:19:01+00:00,179.4749,3.1,12.33,47.84626,-54.09684
2021-01-14 06:29:01+00:00,176.8448,3.1,12.33,47.84626,-54.09684
2021-01-14 06:39:01+00:00,177.9131,3.1,12.33,47.84626,-54.09684
2021-01-14 06:49:01+00:00,185.5648,3.1,12.33,47.84626,-54.09684
2021-01-14 06:59:01+00:00,187.9998,3.2,12.33,47.84626,-54.09684
2021-01-14 07:09:01+00:00,189.2681,3.2,12.33,47.84626,-54.09684
2021-01-14 07:19:01+00:00,195.4265,3.2,12.33,47.84626,-54.09684
2021-01-14 07:29:01+00:00,201.6381,3.25,12.33,47.84626,-54.09684
2021-01-14 07:39:01+00:00,204.8698,3.3,12.33,47.84626,-54.09684
2021-01-14 07:49:01+00:00,208.1231,3.3,12.33,47.84626,-54.09684
2021-01-14 07:59:01+00:00,213.7815,3.32,12.33,47.84626,-54.09684
2021-01-14 08:09:01+00:00,218.5514,3.4,12.33,47.84626,-54.09684
2021-01-14 08:19:01+00:00,221.1297,3.46,12.33,47.84626,-54.09684
2021-01-14 08:29:01+00:00,226.2815,3.49,12.33,47.84626,-54.09684
2021-01-14 08:39:01+00:00,234.0014,3.48,12.33,47.84626,-54.09684
2021-01-14 08:49:01+00:00,240.9664,3.49,12.33,47.84626,-54.09684
2021-01-14 08:59:01+00:00,246.4814,3.49,12.33,47.84626,-54.09684
2021-01-14 09:09:01+00:00,252.9131,3.49,12.33,47.84626,-54.09684
2021-01-14 09:19:01+00:00,259.8848,3.49,12.33,47.84626,-54.09684
2021-01-14 09:29:01+00:00,265.2281,3.5,12.33,47.84626,-54.09684
2021-01-14 09:39:01+00:00,267.6997,3.5,12.33,47.84626,-54.09684
2021-01-14 09:49:01+00:00,272.6864,3.5,12.33,47.84626,-54.09684
2021-01-14 09:59:01+00:00,280.9664,3.5,12.33,47.84626,-54.09684
2021-01-14 10:09:01+00:00,293.2947,3.5,12.33,47.84626,-54.09684
2021-01-14 10:19:01+00:00,301.268,3.5,12.33,47.84626,-54.09684
2021-01-14 10:29:01+00:00,310.9397,3.5,12.33,47.84626,-54.09684
2021-01-14 10:39:01+00:00,323.1097,3.56,12.33,47.84626,-54.09684
2021-01-14 10:49:01+00:00,334.1697,3.6,12.33,47.84626,-54.09684
2021-01-14 10:59:01+00:00,341.483,3.6,12.33,47.84626,-54.09684
2021-01-14 11:09:01+00:00,349.2263,3.6,12.33,47.84626,-54.09684
2021-01-14 11:19:01+00:00,358.1779,3.59,12.33,47.84626,-54.09684
2021-01-14 11:29:01+00:00,366.1146,3.58,12.33,47.84626,-54.09684
2021-01-14 11:39:01+00:00,369.3046,3.5,12.33,47.84626,-54.09684
2021-01-14 11:49:01+00:00,372.6462,3.5,12.33,47.84626,-54.09684
2021-01-14 11:59:01+00:00,378.80800000000005,3.5,12.33,47.84626,-54.09684
2021-01-14 12:09:01+00:00,380.3029,3.5,12.33,47.84626,-54.09684
2021-01-14 12:19:01+00:00,375.648,3.5,12.33,47.84626,-54.09684
2021-01-14 12:29:01+00:00,376.6078,3.49,12.33,47.84626,-54.09684
2021-01-14 12:39:01+00:00,379.1161,3.49,12.33,47.84626,-54.09684
2021-01-14 12:49:01+00:00,376.6862,3.47,12.33,47.84626,-54.09684
2021-01-14 12:59:01+00:00,374.3062,3.4,12.33,47.84626,-54.09684
2021-01-14 13:09:01+00:00,374.5847,3.4,12.33,47.84626,-54.09684
2021-01-14 13:19:01+00:00,373.1546,3.41,12.57,47.84626,-54.09684
2021-01-14 13:29:01+00:00,368.6113,3.5,12.57,47.84626,-54.09684
2021-01-14 13:39:01+00:00,364.0428,3.52,12.57,47.84626,-54.09684
2021-01-14 13:49:01+00:00,361.913,3.59,12.57,47.84626,-54.09684
2021-01-14 13:59:01+00:00,357.5179,3.6,12.57,47.84626,-54.09684
2021-01-14 14:09:01+00:00,354.1163,3.6,12.57,47.84626,-54.09684
2021-01-14 14:19:01+00:00,351.7396,3.64,13.05,47.84626,-54.09684
2021-01-14 14:29:01+00:00,347.8179,3.67,13.05,47.84626,-54.09684
2021-01-14 14:39:01+00:00,343.0463,3.69,13.05,47.84626,-54.09684
2021-01-14 14:49:01+00:00,336.9564,3.68,13.05,47.84626,-54.09684
2021-01-14 14:59:01+00:00,329.9663,3.6,13.05,47.84626,-54.09684
2021-01-14 15:09:01+00:00,323.0613,3.59,13.05,47.84626,-54.09684
2021-01-14 15:19:01+00:00,313.3497,3.5,13.05,47.84626,-54.09684
2021-01-14 15:29:01+00:00,302.813,3.56,13.05,47.84626,-54.09684
2021-01-14 15:39:01+00:00,291.9464,3.59,13.05,47.84626,-54.09684
2021-01-14 15:49:01+00:00,279.1697,3.5,13.05,47.84626,-54.09684
2021-01-14 15:59:01+00:00,267.8414,3.4,13.05,47.84626,-54.09684
2021-01-14 16:09:01+00:00,260.9915,3.4,13.05,47.84626,-54.09684
2021-01-14 16:19:01+00:00,253.5014,3.4,13.05,47.84626,-54.09684
2021-01-14 16:29:01+00:00,238.3831,3.4,13.05,47.84626,-54.09684
2021-01-14 16:39:01+00:00,224.2964,3.3,13.05,47.84626,-54.09684
2021-01-14 16:49:01+00:00,214.9564,3.2,13.05,47.84626,-54.09684
2021-01-14 16:59:01+00:00,209.1198,3.18,13.05,47.84626,-54.09684
2021-01-14 17:09:01+00:00,203.0381,3.0,13.05,47.84626,-54.09684
2021-01-14 17:19:01+00:00,198.3565,3.0,13.05,47.84626,-54.09684
2021-01-14 17:29:01+00:00,193.5381,3.0,13.05,47.84626,-54.09684
2021-01-14 17:39:01+00:00,184.4798,3.0,13.05,47.84626,-54.09684
2021-01-14 17:49:01+00:00,178.0748,3.0,13.05,47.84626,-54.09684
2021-01-14 17:59:01+00:00,177.8531,3.0,13.05,47.84626,-54.09684
2021-01-14 18:09:01+00:00,175.6865,3.0,13.05,47.84626,-54.09684
2021-01-14 18:19:01+00:00,172.6264,3.04,13.05,47.84626,-54.09684
2021-01-14 18:29:01+00:00,171.8632,3.06,13.05,47.84626,-54.09684
2021-01-14 18:39:01+00:00,171.8165,3.09,13.05,47.84626,-54.09684
2021-01-14 18:49:01+00:00,171.4998,3.1,13.05,47.84626,-54.09684
2021-01-14 18:59:01+00:00,173.1548,3.1,13.05,47.84626,-54.09684
2021-01-14 19:09:01+00:00,173.2331,3.18,13.05,47.84626,-54.09684
2021-01-14 19:19:01+00:00,171.6198,3.2,12.89,47.84626,-54.09684
2021-01-14 19:29:01+00:00,175.9565,3.21,12.89,47.84626,-54.09684
2021-01-14 19:39:01+00:00,180.1248,3.26,12.89,47.84626,-54.09684
2021-01-14 19:49:01+00:00,180.4515,3.28,12.89,47.84626,-54.09684
2021-01-14 19:59:01+00:00,182.4665,3.29,12.89,47.84626,-54.09684
2021-01-14 20:09:01+00:00,184.9448,3.28,12.89,47.84626,-54.09684
2021-01-14 20:19:01+00:00,186.6164,3.27,12.81,47.84626,-54.09684
2021-01-14 20:29:01+00:00,189.7081,3.27,12.81,47.84626,-54.09684
2021-01-14 20:39:01+00:00,196.9998,3.29,12.81,47.84626,-54.09684
2021-01-14 20:49:01+00:00,203.6531,3.3,12.81,47.84626,-54.09684
2021-01-14 20:59:01+00:00,205.7598,3.3,12.81,47.84626,-54.09684
2021-01-14 21:09:01+00:00,210.3865,3.3,12.81,47.84626,-54.09684
2021-01-14 21:19:01+00:00,221.6215,3.3,12.73,47.84626,-54.09684
2021-01-14 21:29:01+00:00,231.188,3.3,12.73,47.84626,-54.09684
2021-01-14 21:39:01+00:00,232.0097,3.39,12.73,47.84626,-54.09684
2021-01-14 21:49:01+00:00,237.2181,3.4,12.73,47.84626,-54.09684
2021-01-14 21:59:01+00:00,251.0847,3.4,12.73,47.84626,-54.09684
2021-01-14 22:09:01+00:00,259.2914,3.43,12.73,47.84626,-54.09684
2021-01-14 22:19:01+00:00,262.4097,3.49,12.65,47.84626,-54.09684
2021-01-14 22:29:01+00:00,268.5347,3.5,12.65,47.84626,-54.09684
2021-01-14 22:39:01+00:00,277.6014,3.5,12.65,47.84626,-54.09684
2021-01-14 22:49:01+00:00,283.128,3.5,12.65,47.84626,-54.09684
2021-01-14 22:59:01+00:00,290.8597,3.5,12.65,47.84626,-54.09684
2021-01-14 23:09:01+00:00,299.683,3.5,12.65,47.84626,-54.09684
2021-01-14 23:19:01+00:00,305.343,3.5,12.65,47.84626,-54.09684
2021-01-14 23:29:01+00:00,307.838,3.49,12.65,47.84626,-54.09684
2021-01-14 23:39:01+00:00,315.2913,3.4,12.65,47.84626,-54.09684
2021-01-14 23:49:01+00:00,323.1263,3.44,12.65,47.84626,-54.09684
2021-01-14 23:59:01+00:00,326.9496,3.5,12.65,47.84626,-54.09684
